Other Public Products
Issued by NWS Grand Forks, ND

Home | Current Version | Previous Version | Text Only | Print | Product List | Glossary On
Versions: 1 2 3 4 5 6 7 8 9 10 11 12 13 14 15 16 17 18 19 20 21 22 23 24 25 26 27 28 29 30 31 32 33 34 35 36 37 38 39 40 41 42 43 44 45 46 47 48 49 50
000
FPUS83 KFGF 211531
OPUFGF
PRAIRIE TO PINES WEATHER ROUNDUP
NATIONAL WEATHER SERVICE EASTERN NORTH DAKOTA/GRAND FORKS ND
1000 AM CDT MON AUG 21 2017

 **SATELLITE DATA USED TO AUGMENT SKY COVER AT AUTOMATED STATIONS**
 *****  WEATHER ACROSS EASTERN NORTH DAKOTA  *****

CITY           SKY/WX    TMP DP  RH WIND       PRES   REMARKS
GRAND FORKS    CLOUDY    66  52  60 S9        29.95F
GRAND FORKS AF PTSUNNY   65  49  55 S8        29.96F
GRAND CITY NWS NOT AVBL
BUXTON           N/A     64  57  77 SE3         N/A
DEVILS LAKE    PTSUNNY   65  56  72 S9        29.97F
FARGO          FAIR      64  58  80 SE7       29.96F
WAHPETON ARPT  FAIR      63  55  77 SE7       29.96F
$$

 *****  WEATHER ACROSS CENTRAL AND WESTERN NORTH DAKOTA  *****

CITY           SKY/WX    TMP DP  RH WIND       PRES   REMARKS
JAMESTOWN      FAIR      65  55  70 SE12      29.95F
BISMARCK       FAIR      66  53  63 S7        29.98S
MINOT          PTSUNNY   62  53  72 SE6       29.94S
MINOT AFB      FAIR      63  52  67 S6        29.93R
GARRISON         N/A     64  53  67 W10       29.96S
WILLISTON      FAIR      67  44  43 N20G28    30.04R
DICKINSON      FAIR      67  48  50 NW15      30.01R
HETTINGER      FAIR      65  53  65 W9        30.05S
$$

 *****  OTHER OBSERVATIONS NORTHEAST NORTH DAKOTA  *****

CITY           SKY/WX    TMP DP  RH WIND       PRES   REMARKS
WALHALLA       FAIR      61  61 100 SE5       29.95F
LANGDON        CLOUDY    63  61  94 SE6       29.96F
CAVALIER       FAIR      61  55  82 CALM      29.95F
GRAFTON        FAIR      64  54  68 E7        29.97F
CANDO          CLOUDY    61  61 100 SE6       29.97S
FORT TOTTEN      N/A     64  53  66 S7        29.95S
ROLLA          PTSUNNY   59  55  88 S8        29.96F
RUGBY          DRIZZLE   59  57  94 S3        29.97R
 ***** THE ABOVE OBSERVATIONS ARE NON NWS ARE NOT QUALITY
        CONTROLLED AND MAY MIS-REPORT RAIN FOR SNOW...
$$

 *****  OTHER OBSERVATIONS SOUTHEAST NORTH DAKOTA *****

CITY           SKY/WX    TMP DP  RH WIND       PRES   REMARKS
COOPERSTOWN    FAIR      64  55  72 S9G15     29.97S
VALLEY CITY      N/A     64  57  77 SE13      29.97F
OAKES          NOT AVBL
GWINNER        SUNNY     64  59  82 SE3       29.96F
SHEYENNE NWR     N/A     64  58  81 E7        29.95S
BUFFALO          N/A     65  53  65 N6          N/A
WYNDMERE       NOT AVBL
 ***** THE ABOVE OBSERVATIONS ARE NON NWS ARE NOT QUALITY
       CONTROLLED AND MAY MIS-REPORT RAIN FOR SNOW...
$$

  *****  WEATHER ACROSS NORTHERN MINNESOTA  *****

CITY           SKY/WX    TMP DP  RH WIND       PRES   REMARKS
FLAG ISLAND    FAIR      66  48  52 CALM      29.98F
WARROAD        FAIR      61  54  77 S5        30.01F
ROSEAU         FAIR      61  54  77 S7        30.00F
HALLOCK        CLOUDY    61  55  82 SE3       29.97F
THF RVR FALLS  NOT AVBL
HALSTAD          N/A     64  59  84 CALM        N/A
FOSSTON        FAIR      66  57  72 SE8       30.00F
BAUDETTE       CLOUDY    57  50  77 S3        30.03S
WASKISH        PTSUNNY   64  55  72 CALM      30.03F
CROOKSTON      FAIR      66  54  63 S10       29.96F
$$
  *****  WEATHER ACROSS CENTRAL AND WEST MINNESOTA  *****

CITY           SKY/WX    TMP DP  RH WIND       PRES   REMARKS
BEMIDJI        FAIR      64  54  68 S7        30.02F
PARK RAPIDS    LGT RAIN  61  56  83 SE12      30.05F
WADENA         FAIR      59  59 100 E9        30.00F
DETROIT LAKES  FAIR      63  55  77 SE15      29.99F
MOORHEAD       FAIR      64  57  77 CALM      29.97F
FERGUS FALLS   FAIR      63  55  77 SE10      29.96F
ELBOW LAKE     FAIR      64  58  80 SE13G20   29.97F
MORRIS MN      LGT RAIN  63  61  94 SE14      29.97F
STAPLES        DRIZZLE   59  57  94 CALM      30.05F
WHEATON        FAIR      63  57  82 SE12      29.99R
$$
  *****  WEATHER ELSEWHERE ACROSS MINNESOTA  *****

CITY           SKY/WX    TMP DP  RH WIND       PRES   REMARKS
DULUTH         FAIR      65  56  72 SE3       30.05F
INTRNTL FALLS  FAIR      63  52  67 SW5       30.04F
ELY            FAIR      64  52  63 CALM      30.05S
CLOQUET        FAIR      68  52  56 CALM      30.05S
BRAINERD       CLOUDY    63  59  87 CALM      30.07F
HIBBING        FAIR      57  54  89 CALM      30.06S
ALEXANDRIA     CLOUDY    64  57  78 E9        30.05F
SAINT CLOUD    FAIR      68  59  73 E7        30.01F
MINNEAPOLIS    PTSUNNY   73  63  70 E6        29.99F
$$

  *****  WEATHER ACROSS SOUTH DAKOTA  *****

CITY           SKY/WX    TMP DP  RH WIND       PRES   REMARKS
SIOUX FALLS    PTSUNNY   73  67  81 S12       29.97S
BROOKINGS      CLOUDY    68  64  87 N5        30.03R
WATERTOWN      PTSUNNY   62  62 100 E6        30.01F
HURON          PTSUNNY   64  63  96 E9        29.98F
SISSETON         N/A     62  59  90 SE9       29.95F
ABERDEEN       FAIR      64  59  83 N7        29.92F
MITCHELL       CLOUDY    73  65  75 SE12      29.98S
PIERRE         FAIR      63  61  93 NE5       29.94S
MOBRIDGE       FAIR      61  56  83 W3        29.99R
RAPID CITY     FAIR      68  54  60 N15       30.05R
$$

  *****  SOME WEATHER IN NEARBY STATES *****

CITY           SKY/WX    TMP DP  RH WIND       PRES   REMARKS
GLASGOW MT     FAIR      63  37  38 CALM      30.13R
GREAT FALLS MT FAIR      62  33  33 W12       30.19R
CHEYENNE WY    FAIR      73  41  31 N10       30.19R
SCOTTSBLUFF NE FAIR      66  58  75 W12       30.05R
OMAHA NE       PTSUNNY   73  66  78 SE20      30.01F
DES MOINES IA  TSTM      67  65  93 SW21      30.10R FOG
DAVENPORT IA   FAIR      71  68  90 SW5       30.08R
CHICAGO IL     PTSUNNY   78  70  76 W13       30.07S
EAU CLAIRE WI  FAIR      67  64  90 NE5       30.01F
LA CROSSE WI   FAIR      77  68  73 SE3       30.02F
$$

  *****  SOME NATIONAL WEATHER *****

CITY           SKY/WX    TMP DP  RH WIND       PRES   REMARKS
LA GUARDIA NY  PTSUNNY   84  63  49 W8        30.19R
RALEIGH NC     PTSUNNY   88  72  58 SE3       30.24R HX  94
ATLANTA GA     FAIR      87  71  58 E5        30.21R HX  93
NEW ORLEANS LA PTSUNNY   89  78  70 NE9       30.12R HX 103
OKLAHOMA CITY  FAIR      83  70  64 S13       30.08S
ALBUQUERQUE NM PTSUNNY   62  60  93 SE5       30.24S
SALT LAKE CITY FAIR      78  44  29 S6        30.10R
LOS ANGELES CA CLOUDY    70  60  70 E5        30.00R
BOISE ID       FAIR      65  39  38 CALM      30.11R
SEATTLE WA     FAIR      62  56  80 N9        30.14R
$$

*** WEATHER ACROSS MANITOBA...SASKATCHEWAN AND ONTARIO ***
                ***ONTARIO***

CITY           SKY/WX    TMP DP  RH WIND       PRES   REMARKS
GERALDTON      PTSUNNY   68  57  68 SW6       29.99F
THUNDER BAY    PTSUNNY   68  54  60 SW5       30.01F
SIOUX LOOKOUT  CLOUDY    68  52  56 W7        29.99S
TORONTO        MOSUNNY   81  64  57 VRB5      30.08S
BIG TROUT LK   SUNNY     64  48  55 W14G20    29.74F
PICKLE LAKE    PTSUNNY   66  48  52 SW12      29.90S
DRYDEN         MOSUNNY   66  54  63 SW6       30.01R
KENORA         CLOUDY    63  52  67 W5        30.02S
$$
                *** MANITOBA***

CITY           SKY/WX    TMP DP  RH WIND       PRES   REMARKS
BRANDON        CLOUDY    61  54  77 SE3       29.93S
DAUPHIN        PTSUNNY   61  54  77 S2        29.95S
ISLAND LAKE    SUNNY     64  50  59 W6        29.79S
PILOT MOUND      N/A     61  52  72 S7          N/A
THE PAS        MOSUNNY   61  48  63 W13       29.88S
THOMPSON       MOSUNNY   61  52  72 W6        29.77R
WINNIPEG       LGT RAIN  59  55  88 VRB2      29.97R
LYNN LAKE      CLOUDY    57  50  77 MISG      29.80R
CHURCHILL      CLOUDY    50  50 100 NE21      29.72R FOG
GILLAM         CLOUDY    59  50  72 NW18G28   29.67R
$$
                ***SASKATCHEWAN***

CITY           SKY/WX    TMP DP  RH WIND       PRES   REMARKS
ESTEVAN        PTSUNNY   63  48  59 NW13      30.02R
KINDERSLEY     MOSUNNY   55  45  67 W5        30.14S
LLOYDMINSTER   MOSUNNY   55  46  71 W9        30.10R
PRINCE ALBERT  MOSUNNY   59  45  58 NW10G18   30.04R
REGINA         MOSUNNY   61  43  51 NW15      30.07R
YORKTON        SUNNY     61  50  67 NW12      29.99R



USA.gov is the U.S. government's official web portal to all federal, state and local government web resources and services.